GFSFLT2_700_temp_132.txt.gz
Temp
-4 -5 -5 -5 -5 -5 -4 -4 -4 -5 -4 -5 -5 -4 -4 -4 -4 -3 -3 -3 -3 -3 -3 -2 -2 -1 -0
-5 -5 -6 -6 -6 -6 -6 -5 -5 -4 -4 -4 -5 -5 -5 -5 -5 -4 -4 -3 -3 -3 -4 -3 -3 -2 -1
-6 -6 -6 -6 -6 -6 -6 -6 -6 -6 -5 -5 -5 -5 -5 -5 -4 -4 -4 -4 -4 -3 -3 -3 -3 -3 -3
-6 -7 -7 -6 -6 -6 -6 -6 -6 -6 -6 -6 -6 -6 -6 -5 -5 -5 -5 -4 -4 -4 -4 -4 -4 -3 -3
-7 -7 -7 -7 -7 -6 -6 -6 -5 -5 -6 -6 -6 -6 -7 -7 -6 -6 -6 -6 -5 -5 -5 -5 -5 -4 -4
-8 -8 -8 -8 -7 -7 -7 -6 -6 -6 -6 -6 -7 -7 -7 -7 -7 -7 -7 -7 -7 -6 -6 -5 -5 -5 -5
-9 -8 -8 -8 -8 -8 -7 -7 -7 -7 -7 -6 -8 -7 -8 -8 -8 -9 -9 -8 -8 -8 -7 -7 -6 -6 -6
-9 -9 -9 -9 -9 -8 -8 -8 -8 -8 -9 -8 -9 -8 -9 -9 -10 -10 -10 -10 -10 -10 -9 -9 -8 -7 -7
-9 -9 -9 -9 -9 -9 -9 -9 -9 -9 -10 -10 -10 -9 -10 -10 -11 -12 -12 -12 -12 -12 -12 -11 -10 -9 -8
-10 -10 -10 -10 -10 -10 -10 -10 -9 -9 -10 -10 -10 -11 -11 -11 -12 -13 -13 -14 -14 -14 -13 -13 -12 -11 -10
-10 -10 -10 -10 -10 -10 -11 -11 -11 -11 -12 -12 -12 -13 -14 -14 -13 -15 -15 -15 -16 -15 -15 -15 -14 -13 -12
-10 -10 -10 -10 -10 -11 -11 -11 -11 -12 -13 -13 -13 -14 -15 -15 -15 -15 -16 -16 -16 -16 -16 -16 -15 -14 -14
-11 -11 -11 -11 -11 -11 -11 -11 -12 -13 -13 -14 -14 -15 -15 -16 -15 -15 -16 -16 -17 -17 -17 -16 -16 -16 -15
-11 -11 -11 -11 -11 -11 -11 -12 -12 -13 -14 -14 -15 -15 -15 -16 -17 -16 -17 -17 -17 -17 -18 -17 -17 -16 -16
-11 -11 -11 -11 -11 -11 -11 -12 -13 -13 -14 -14 -15 -16 -16 -16 -16 -17 -17 -17 -17 -17 -18 -17 -17 -17 -16
-11 -11 -11 -11 -11 -11 -12 -12 -13 -13 -14 -14 -15 -15 -16 -16 -17 -17 -17 -17 -17 -18 -18 -18 -16 -16 -17
-12 -12 -12 -12 -12 -11 -12 -13 -13 -13 -13 -14 -15 -16 -16 -15 -16 -17 -17 -17 -17 -17 -18 -17 -17 -16 -17

GFSFLT2_700_temp_138.txt.gz
Temp
-5 -5 -5 -5 -5 -5 -5 -5 -5 -6 -6 -5 -5 -5 -5 -5 -5 -5 -5 -4 -4 -4 -4 -4 -3 -3 -2
-5 -5 -6 -6 -6 -6 -6 -6 -6 -6 -6 -6 -6 -6 -6 -5 -5 -5 -4 -4 -4 -4 -4 -4 -4 -3 -3
-6 -6 -6 -6 -6 -7 -7 -7 -7 -7 -7 -6 -6 -6 -6 -6 -6 -5 -5 -5 -4 -5 -5 -4 -4 -4 -4
-7 -7 -7 -7 -7 -7 -7 -8 -8 -8 -8 -7 -7 -7 -6 -6 -6 -6 -6 -6 -6 -5 -5 -5 -4 -4 -4
-7 -7 -7 -8 -8 -8 -8 -8 -8 -8 -8 -8 -7 -7 -7 -6 -6 -6 -6 -6 -6 -6 -5 -5 -5 -5 -4
-8 -8 -8 -9 -9 -9 -9 -8 -8 -8 -8 -8 -8 -8 -7 -7 -7 -7 -6 -6 -6 -6 -6 -6 -6 -6 -5
-9 -9 -9 -10 -9 -9 -9 -9 -9 -9 -8 -8 -8 -8 -8 -8 -8 -8 -7 -7 -7 -7 -7 -7 -7 -7 -6
-9 -9 -9 -10 -10 -10 -9 -9 -9 -9 -9 -8 -8 -8 -8 -8 -8 -8 -8 -8 -8 -8 -8 -8 -8 -8 -8
-10 -10 -10 -10 -11 -10 -10 -10 -9 -9 -9 -9 -9 -8 -8 -8 -9 -9 -9 -9 -9 -9 -9 -10 -10 -10 -9
-11 -10 -11 -11 -11 -11 -11 -10 -10 -9 -10 -10 -9 -9 -8 -8 -9 -9 -9 -10 -10 -10 -11 -11 -11 -10 -10
-11 -11 -11 -12 -12 -11 -11 -11 -10 -10 -10 -10 -9 -10 -9 -8 -9 -9 -10 -10 -10 -11 -12 -12 -12 -12 -12
-11 -11 -11 -12 -11 -11 -11 -11 -11 -11 -11 -11 -10 -10 -10 -9 -9 -10 -10 -10 -11 -12 -12 -13 -13 -13 -13
-11 -11 -12 -12 -11 -11 -12 -12 -11 -11 -12 -11 -11 -10 -10 -10 -10 -10 -10 -11 -12 -13 -13 -13 -13 -14 -14
-12 -11 -12 -12 -12 -12 -11 -12 -11 -12 -12 -12 -11 -11 -11 -11 -11 -11 -11 -12 -12 -13 -14 -14 -14 -14 -14
-12 -12 -12 -12 -12 -12 -12 -12 -11 -12 -12 -12 -12 -11 -11 -11 -11 -12 -12 -12 -14 -15 -15 -15 -15 -15 -15
-12 -12 -12 -12 -12 -12 -12 -12 -11 -12 -12 -12 -12 -12 -12 -12 -12 -12 -12 -13 -14 -15 -16 -15 -15 -16 -16
-12 -12 -12 -12 -12 -12 -12 -12 -12 -12 -12 -12 -12 -12 -12 -11 -13 -13 -13 -14 -15 -15 -16 -16 -16 -16 -17

GFSFLT2_700_temp_144.txt.gz
Temp
-5 -5 -5 -5 -6 -6 -6 -6 -6 -6 -6 -5 -5 -5 -5 -5 -5 -5 -5 -5 -5 -5 -5 -5 -4 -4 -3
-5 -6 -6 -6 -6 -6 -6 -7 -7 -7 -6 -6 -6 -6 -6 -6 -6 -6 -6 -6 -5 -5 -5 -5 -5 -4 -4
-6 -6 -6 -6 -6 -7 -7 -7 -7 -7 -7 -7 -7 -7 -7 -7 -7 -7 -7 -7 -6 -6 -6 -5 -5 -5 -4
-6 -6 -7 -7 -7 -7 -7 -8 -8 -8 -8 -7 -7 -7 -7 -8 -8 -8 -7 -7 -7 -7 -6 -6 -5 -5 -5
-7 -7 -7 -7 -8 -7 -7 -8 -8 -8 -8 -8 -8 -8 -8 -8 -8 -8 -8 -8 -7 -7 -7 -7 -6 -6 -6
-7 -7 -7 -8 -8 -7 -8 -8 -8 -9 -9 -9 -9 -9 -9 -9 -9 -9 -9 -8 -8 -7 -7 -7 -7 -6 -6
-7 -7 -8 -8 -8 -8 -9 -9 -9 -9 -9 -9 -9 -9 -10 -10 -10 -9 -9 -9 -9 -8 -8 -7 -7 -7 -6
-7 -7 -8 -8 -8 -8 -9 -9 -9 -10 -10 -9 -10 -10 -10 -11 -11 -10 -10 -9 -9 -9 -8 -8 -8 -7 -7
-8 -8 -8 -8 -8 -9 -9 -9 -10 -10 -10 -10 -10 -10 -10 -10 -11 -10 -10 -10 -10 -9 -9 -8 -8 -8 -7
-8 -8 -8 -9 -9 -9 -9 -10 -11 -10 -10 -11 -11 -11 -10 -10 -11 -11 -10 -11 -10 -10 -9 -9 -9 -8 -8
-9 -9 -9 -9 -10 -10 -11 -12 -11 -11 -11 -11 -11 -11 -11 -10 -10 -11 -11 -11 -10 -10 -10 -10 -9 -9 -8
-9 -9 -10 -10 -10 -11 -12 -12 -12 -12 -12 -12 -11 -11 -11 -10 -10 -10 -11 -11 -11 -11 -11 -10 -10 -10 -9
-9 -9 -10 -10 -11 -11 -12 -12 -12 -12 -12 -12 -12 -12 -11 -10 -10 -10 -10 -10 -11 -10 -10 -10 -10 -10 -10
-9 -10 -10 -11 -11 -12 -12 -12 -12 -12 -13 -13 -13 -12 -12 -11 -11 -10 -11 -10 -11 -10 -10 -10 -10 -10 -10
-10 -10 -11 -11 -12 -12 -13 -12 -12 -12 -12 -13 -13 -12 -12 -11 -11 -11 -11 -11 -11 -10 -10 -10 -10 -10 -10
-11 -11 -11 -12 -12 -13 -13 -13 -12 -12 -12 -13 -13 -13 -12 -12 -12 -12 -11 -11 -11 -11 -11 -10 -9 -10 -11
-11 -12 -12 -12 -13 -13 -13 -13 -13 -13 -13 -13 -13 -13 -13 -12 -12 -13 -12 -12 -12 -12 -12 -12 -11 -11 -12

GFSFLT2_700_temp_147.txt.gz
Temp
-5 -5 -5 -5 -5 -5 -5 -5 -5 -5 -5 -6 -6 -6 -6 -6 -6 -6 -5 -5 -5 -5 -5 -5 -5 -4 -4
-5 -5 -6 -6 -6 -6 -6 -6 -6 -6 -6 -6 -6 -7 -7 -6 -6 -6 -6 -6 -6 -6 -6 -6 -6 -5 -5
-5 -6 -6 -6 -7 -7 -7 -6 -6 -6 -6 -6 -7 -7 -7 -7 -7 -7 -7 -7 -7 -7 -7 -7 -6 -6 -6
-5 -6 -6 -7 -7 -7 -7 -7 -7 -7 -7 -7 -7 -7 -8 -8 -7 -7 -7 -7 -7 -7 -7 -7 -7 -7 -6
-6 -6 -7 -7 -7 -7 -7 -7 -7 -7 -7 -8 -8 -8 -8 -8 -8 -8 -8 -8 -8 -8 -8 -7 -7 -7 -7
-6 -6 -7 -8 -7 -8 -7 -7 -7 -7 -8 -8 -8 -8 -9 -9 -8 -9 -9 -9 -9 -8 -8 -8 -8 -7 -7
-6 -7 -7 -8 -8 -8 -8 -8 -7 -8 -8 -8 -8 -9 -9 -9 -9 -10 -9 -9 -9 -9 -9 -8 -8 -8 -8
-7 -8 -8 -8 -8 -8 -8 -8 -8 -8 -9 -8 -8 -9 -9 -10 -10 -10 -10 -10 -10 -10 -9 -9 -8 -8 -8
-8 -8 -8 -9 -8 -8 -8 -9 -8 -9 -9 -9 -9 -10 -10 -10 -10 -11 -11 -10 -10 -10 -10 -9 -9 -9 -8
-9 -9 -9 -9 -9 -9 -9 -9 -9 -9 -9 -10 -10 -10 -10 -10 -11 -11 -11 -11 -10 -10 -10 -10 -9 -9 -8
-9 -9 -9 -9 -9 -10 -9 -9 -10 -10 -10 -10 -10 -11 -11 -11 -11 -11 -11 -12 -11 -10 -10 -10 -10 -9 -9
-10 -10 -10 -10 -10 -10 -10 -10 -10 -10 -11 -11 -11 -12 -12 -11 -11 -11 -12 -12 -12 -11 -11 -11 -10 -9 -9
-11 -10 -10 -11 -11 -10 -11 -11 -11 -11 -12 -12 -12 -12 -12 -12 -11 -11 -11 -12 -12 -12 -12 -11 -11 -10 -10
-11 -11 -11 -11 -11 -11 -11 -11 -12 -12 -13 -13 -13 -13 -12 -12 -11 -11 -11 -11 -12 -11 -11 -11 -11 -11 -10
-11 -11 -11 -11 -11 -11 -12 -12 -12 -12 -13 -13 -13 -13 -13 -12 -11 -12 -12 -12 -11 -12 -12 -11 -11 -10 -10
-12 -12 -12 -12 -12 -12 -12 -12 -13 -13 -13 -13 -14 -14 -13 -12 -12 -12 -12 -11 -12 -12 -11 -11 -10 -11 -11
-12 -12 -12 -12 -12 -12 -13 -13 -13 -13 -13 -13 -14 -14 -13 -12 -13 -13 -12 -12 -12 -12 -12 -11 -10 -10 -11

GFSFLT2_700_temp_150.txt.gz
Temp
-3 -4 -4 -4 -4 -5 -5 -5 -5 -5 -5 -5 -5 -5 -5 -5 -5 -5 -5 -5 -5 -5 -5 -5 -5 -5 -5
-4 -4 -4 -5 -5 -6 -6 -6 -6 -6 -6 -6 -6 -6 -6 -6 -6 -6 -6 -6 -6 -6 -6 -6 -6 -6 -6
-3 -4 -4 -5 -6 -6 -6 -7 -7 -6 -6 -6 -6 -6 -6 -6 -6 -7 -7 -6 -6 -6 -7 -6 -6 -6 -6
-3 -4 -5 -5 -6 -6 -7 -7 -7 -7 -6 -7 -7 -7 -7 -7 -7 -7 -7 -7 -7 -7 -7 -7 -7 -7 -7
-4 -4 -4 -5 -5 -7 -7 -8 -7 -7 -7 -7 -7 -7 -7 -7 -7 -7 -7 -7 -7 -8 -8 -8 -8 -8 -7
-4 -5 -5 -6 -7 -7 -8 -8 -7 -7 -7 -8 -7 -8 -8 -8 -8 -7 -8 -8 -8 -8 -8 -8 -8 -8 -8
-5 -5 -6 -7 -7 -8 -8 -8 -8 -8 -7 -7 -8 -8 -8 -8 -8 -8 -8 -8 -8 -9 -9 -9 -9 -9 -9
-7 -7 -7 -7 -8 -8 -9 -8 -8 -8 -8 -8 -8 -8 -8 -9 -9 -9 -9 -9 -9 -9 -9 -9 -9 -9 -9
-8 -8 -8 -9 -9 -10 -9 -9 -9 -9 -9 -8 -9 -9 -9 -9 -9 -10 -10 -9 -10 -10 -10 -10 -10 -10 -9
-9 -9 -9 -9 -10 -10 -10 -9 -9 -9 -9 -9 -9 -10 -9 -9 -10 -10 -10 -10 -10 -11 -10 -10 -10 -10 -10
-10 -10 -10 -10 -10 -10 -10 -10 -10 -10 -10 -10 -10 -10 -10 -10 -11 -11 -11 -11 -11 -11 -11 -11 -11 -10 -10
-11 -10 -10 -10 -10 -10 -10 -10 -10 -10 -11 -11 -10 -11 -11 -11 -11 -11 -11 -12 -12 -12 -11 -11 -11 -11 -10
-12 -11 -10 -10 -11 -11 -11 -11 -11 -11 -11 -11 -11 -12 -12 -12 -12 -12 -12 -12 -12 -12 -12 -12 -11 -10 -10
-13 -12 -12 -11 -11 -11 -11 -11 -11 -11 -11 -12 -12 -13 -13 -12 -12 -12 -12 -12 -13 -13 -12 -12 -11 -11 -10
-13 -13 -12 -12 -12 -12 -12 -12 -12 -12 -12 -12 -13 -14 -14 -13 -12 -12 -12 -12 -13 -13 -12 -11 -11 -11 -11
-13 -13 -13 -13 -13 -13 -13 -12 -12 -12 -13 -13 -13 -14 -14 -13 -13 -13 -13 -13 -13 -13 -13 -12 -11 -11 -11
-14 -13 -13 -13 -13 -13 -13 -13 -13 -13 -13 -14 -14 -14 -13 -13 -13 -13 -13 -13 -13 -13 -12 -12 -11 -12 -12

GFSFLT2_700_temp_153.txt.gz
Temp
-1 -2 -1 -1 -2 -3 -3 -4 -4 -4 -5 -5 -5 -5 -5 -5 -5 -5 -5 -5 -5 -5 -5 -5 -5 -5 -4
-1 -2 -2 -2 -3 -3 -3 -3 -4 -5 -5 -6 -5 -5 -5 -5 -6 -6 -6 -6 -6 -6 -6 -6 -5 -5 -5
-2 -2 -3 -3 -3 -3 -4 -4 -4 -5 -6 -6 -6 -6 -6 -6 -6 -6 -6 -6 -6 -6 -6 -6 -6 -6 -6
-2 -3 -3 -3 -4 -4 -4 -5 -5 -5 -6 -6 -6 -6 -6 -7 -6 -7 -7 -7 -7 -7 -6 -6 -6 -6 -6
-3 -3 -3 -3 -4 -5 -5 -5 -5 -5 -5 -6 -6 -7 -7 -7 -7 -7 -7 -7 -7 -7 -7 -7 -7 -7 -7
-5 -4 -4 -5 -5 -6 -6 -6 -6 -6 -7 -7 -7 -7 -7 -7 -7 -7 -7 -7 -7 -7 -8 -7 -8 -7 -7
-6 -5 -6 -7 -7 -7 -7 -7 -7 -8 -8 -7 -8 -7 -8 -8 -8 -8 -8 -8 -8 -8 -8 -8 -8 -8 -8
-8 -7 -8 -8 -9 -9 -9 -9 -9 -9 -9 -8 -8 -8 -9 -8 -8 -8 -8 -8 -8 -8 -8 -8 -8 -9 -9
-9 -9 -9 -10 -10 -10 -9 -9 -9 -9 -10 -10 -9 -9 -9 -9 -9 -9 -9 -9 -9 -9 -9 -9 -9 -9 -9
-11 -11 -10 -11 -12 -10 -10 -9 -9 -10 -10 -10 -10 -10 -10 -9 -9 -9 -9 -9 -9 -9 -10 -10 -10 -10 -10
-13 -13 -13 -12 -12 -12 -10 -10 -10 -10 -10 -10 -10 -10 -10 -10 -10 -10 -10 -10 -10 -10 -10 -10 -11 -10 -10
-13 -13 -13 -13 -13 -13 -12 -11 -10 -11 -11 -11 -10 -10 -11 -11 -11 -11 -10 -11 -11 -11 -11 -11 -11 -11 -11
-13 -13 -13 -14 -14 -13 -13 -13 -12 -11 -11 -11 -11 -11 -11 -11 -11 -11 -11 -11 -11 -12 -12 -12 -12 -11 -11
-13 -14 -14 -14 -14 -13 -13 -13 -13 -12 -12 -11 -12 -12 -12 -12 -12 -12 -12 -12 -12 -12 -13 -13 -12 -11 -11
-14 -14 -14 -14 -14 -13 -14 -13 -13 -13 -13 -13 -12 -13 -13 -13 -13 -12 -13 -13 -13 -13 -13 -13 -12 -12 -12
-14 -14 -14 -14 -13 -13 -14 -14 -14 -13 -13 -13 -13 -13 -14 -13 -13 -13 -13 -13 -13 -14 -13 -13 -12 -12 -12
-14 -14 -14 -14 -14 -14 -13 -14 -14 -14 -14 -14 -13 -14 -14 -13 -14 -14 -14 -14 -14 -14 -13 -13 -12 -12 -12

GFSFLT2_700_temp_159.txt.gz
Temp
-1 -1 -1 -1 -1 -1 -1 -1 -1 -2 -3 -3 -3 -3 -4 -4 -4 -4 -4 -4 -4 -4 -4 -4 -5 -4 -4
-1 -1 -1 -1 -2 -2 -2 -2 -2 -2 -3 -4 -4 -4 -4 -4 -5 -5 -5 -5 -5 -5 -5 -5 -5 -5 -5
-1 -1 -2 -2 -2 -3 -3 -4 -4 -4 -4 -5 -5 -5 -5 -5 -5 -5 -6 -6 -6 -6 -6 -6 -6 -6 -6
-2 -2 -3 -3 -3 -3 -3 -3 -4 -5 -6 -5 -6 -6 -6 -6 -6 -6 -7 -7 -7 -7 -7 -7 -7 -6 -6
-4 -4 -4 -5 -6 -6 -5 -5 -4 -5 -5 -6 -7 -7 -7 -7 -7 -7 -7 -7 -7 -7 -7 -7 -7 -7 -7
-6 -6 -6 -8 -8 -8 -8 -8 -7 -8 -8 -6 -8 -7 -8 -9 -8 -9 -9 -8 -8 -8 -7 -8 -8 -7 -7
-9 -9 -9 -10 -10 -10 -10 -10 -10 -10 -11 -9 -10 -9 -10 -10 -11 -11 -10 -9 -9 -9 -9 -9 -8 -8 -8
-11 -11 -11 -11 -11 -12 -12 -12 -12 -12 -12 -12 -11 -11 -12 -11 -11 -11 -10 -10 -10 -9 -10 -9 -9 -9 -9
-12 -12 -12 -12 -13 -13 -13 -13 -13 -12 -12 -13 -12 -13 -13 -13 -12 -11 -10 -10 -10 -10 -10 -10 -9 -9 -9
-13 -13 -13 -13 -13 -13 -13 -13 -13 -13 -12 -14 -13 -14 -15 -14 -13 -12 -11 -11 -10 -10 -11 -10 -10 -9 -9
-13 -13 -14 -14 -13 -13 -13 -14 -14 -14 -13 -14 -14 -14 -14 -14 -13 -13 -12 -11 -11 -11 -11 -10 -10 -10 -10
-14 -14 -14 -14 -13 -13 -13 -14 -14 -14 -14 -14 -15 -15 -15 -14 -13 -13 -14 -13 -12 -12 -11 -11 -11 -11 -10
-14 -14 -14 -14 -13 -13 -14 -14 -14 -14 -14 -14 -14 -14 -14 -14 -13 -14 -14 -14 -13 -13 -12 -12 -12 -12 -11
-14 -14 -14 -14 -14 -14 -14 -14 -14 -14 -14 -14 -14 -14 -14 -14 -14 -14 -14 -14 -13 -13 -13 -13 -13 -12 -12
-15 -14 -15 -15 -15 -15 -15 -14 -14 -14 -14 -14 -14 -14 -14 -14 -15 -15 -15 -14 -14 -14 -13 -13 -13 -13 -13
-15 -15 -16 -16 -16 -15 -15 -15 -15 -15 -15 -15 -14 -14 -14 -14 -15 -15 -15 -14 -14 -14 -14 -14 -14 -14 -14
-16 -16 -17 -16 -16 -15 -15 -15 -15 -15 -15 -15 -14 -15 -15 -15 -15 -15 -15 -15 -15 -15 -15 -15 -14 -15 -14

GFSFLT2_700_temp_162.txt.gz
Temp
-2 -2 -2 -2 -2 -2 -2 -2 -2 -2 -2 -3 -3 -3 -4 -3 -4 -4 -4 -4 -4 -4 -5 -5 -5 -4 -4
-2 -2 -2 -2 -2 -2 -2 -3 -3 -3 -3 -3 -3 -3 -4 -4 -4 -4 -4 -5 -5 -5 -6 -6 -6 -6 -6
-2 -2 -2 -3 -3 -3 -3 -3 -3 -4 -5 -5 -5 -5 -5 -5 -6 -6 -6 -6 -6 -5 -6 -6 -6 -6 -6
-3 -3 -4 -4 -5 -5 -4 -5 -5 -6 -6 -6 -7 -7 -7 -7 -6 -6 -6 -6 -6 -7 -7 -7 -7 -7 -7
-5 -5 -5 -6 -7 -7 -7 -7 -7 -8 -7 -7 -8 -7 -7 -8 -8 -8 -8 -7 -8 -8 -8 -8 -8 -8 -8
-7 -7 -8 -9 -9 -10 -10 -10 -9 -10 -10 -9 -10 -9 -9 -9 -9 -9 -9 -9 -9 -9 -9 -8 -8 -8 -8
-9 -10 -10 -11 -11 -12 -12 -12 -11 -11 -12 -12 -12 -11 -11 -11 -11 -11 -10 -10 -10 -10 -10 -10 -9 -9 -9
-11 -11 -12 -12 -13 -13 -13 -13 -13 -12 -13 -13 -12 -12 -12 -12 -12 -12 -12 -12 -12 -12 -10 -10 -10 -10 -9
-12 -12 -13 -13 -14 -14 -14 -14 -14 -13 -13 -13 -13 -13 -13 -12 -12 -12 -13 -13 -13 -12 -12 -11 -10 -10 -10
-13 -13 -13 -14 -14 -15 -15 -14 -14 -14 -13 -14 -14 -14 -13 -13 -13 -13 -14 -14 -14 -14 -12 -11 -11 -10 -10
-13 -14 -14 -14 -14 -15 -15 -15 -14 -14 -13 -15 -14 -14 -14 -15 -14 -14 -14 -14 -14 -14 -13 -12 -12 -11 -11
-14 -14 -14 -14 -14 -14 -15 -14 -14 -14 -14 -15 -15 -14 -15 -15 -14 -14 -14 -15 -14 -14 -13 -13 -13 -13 -13
-15 -14 -14 -14 -14 -14 -14 -14 -14 -15 -15 -15 -15 -14 -15 -15 -14 -14 -14 -14 -14 -14 -14 -14 -14 -14 -13
-15 -15 -15 -15 -15 -15 -15 -15 -15 -15 -15 -15 -15 -15 -15 -15 -15 -14 -14 -14 -14 -14 -14 -14 -14 -14 -13
-15 -15 -15 -15 -15 -16 -16 -16 -15 -15 -14 -15 -15 -15 -15 -14 -14 -14 -14 -15 -15 -15 -15 -14 -14 -14 -13
-15 -16 -16 -16 -17 -17 -17 -16 -15 -15 -15 -15 -15 -15 -15 -15 -15 -15 -15 -15 -15 -15 -15 -14 -14 -14 -14
-17 -17 -17 -17 -17 -17 -16 -16 -15 -15 -15 -15 -15 -15 -15 -15 -15 -15 -15 -15 -15 -15 -15 -14 -14 -14 -14

GFSFLT2_700_temp_165.txt.gz
Temp
-2 -2 -2 -2 -2 -2 -2 -2 -2 -2 -3 -3 -3 -3 -3 -3 -4 -3 -3 -3 -3 -3 -3 -3 -3 -3 -3
-2 -2 -2 -2 -2 -2 -3 -3 -3 -3 -3 -4 -4 -4 -4 -4 -4 -5 -5 -5 -5 -5 -5 -4 -4 -4 -4
-2 -2 -3 -3 -4 -4 -4 -4 -5 -5 -5 -5 -6 -6 -6 -6 -5 -5 -5 -6 -6 -6 -6 -6 -6 -5 -5
-3 -3 -4 -4 -5 -5 -5 -5 -5 -6 -7 -7 -7 -7 -7 -8 -8 -7 -7 -7 -7 -7 -7 -6 -6 -6 -6
-5 -5 -5 -6 -7 -7 -7 -7 -7 -8 -9 -9 -10 -9 -9 -9 -9 -9 -9 -8 -8 -8 -7 -8 -8 -7 -7
-6 -7 -8 -9 -9 -10 -10 -11 -10 -10 -11 -11 -11 -11 -11 -11 -10 -11 -11 -10 -10 -9 -9 -9 -9 -9 -9
-10 -10 -10 -11 -12 -12 -12 -13 -12 -12 -13 -13 -13 -13 -13 -13 -12 -12 -12 -12 -12 -11 -11 -11 -10 -10 -10
-12 -12 -13 -13 -13 -14 -14 -14 -14 -13 -14 -14 -14 -14 -14 -13 -13 -12 -12 -12 -12 -12 -12 -12 -12 -13 -11
-13 -13 -14 -14 -14 -15 -16 -17 -14 -14 -14 -15 -14 -14 -14 -13 -13 -13 -13 -13 -13 -13 -13 -13 -12 -13 -12
-13 -14 -14 -14 -15 -15 -15 -15 -15 -14 -14 -15 -14 -14 -14 -13 -13 -13 -13 -14 -14 -14 -14 -14 -14 -14 -13
-14 -14 -15 -15 -15 -15 -15 -15 -15 -14 -15 -16 -14 -14 -15 -14 -13 -14 -14 -14 -14 -15 -15 -15 -14 -15 -14
-15 -15 -15 -15 -15 -15 -15 -15 -16 -15 -15 -16 -15 -16 -15 -15 -14 -14 -14 -14 -14 -15 -15 -15 -14 -14 -14
-15 -15 -15 -15 -15 -15 -15 -15 -16 -16 -16 -16 -16 -16 -16 -15 -14 -14 -14 -14 -14 -14 -14 -14 -14 -14 -13
-15 -15 -15 -15 -15 -16 -16 -16 -16 -16 -16 -16 -16 -16 -16 -16 -15 -15 -15 -15 -15 -15 -14 -14 -14 -14 -14
-16 -16 -16 -16 -16 -17 -17 -17 -17 -16 -15 -16 -16 -16 -16 -16 -16 -15 -15 -15 -15 -15 -15 -15 -15 -14 -14
-17 -17 -17 -17 -17 -17 -17 -17 -17 -16 -16 -15 -15 -15 -15 -15 -15 -15 -15 -15 -15 -15 -15 -15 -15 -15 -14
-17 -17 -18 -17 -18 -17 -17 -17 -16 -16 -16 -15 -15 -16 -15 -15 -15 -15 -15 -15 -15 -15 -16 -16 -15 -15 -15

GFSFLT2_700_temp_171.txt.gz
Temp
-2 -2 -2 -2 -3 -3 -3 -3 -3 -3 -4 -4 -4 -4 -4 -5 -5 -5 -5 -5 -5 -4 -4 -4 -4 -3 -3
-3 -3 -3 -3 -3 -4 -4 -4 -5 -5 -5 -5 -5 -6 -6 -6 -6 -6 -6 -6 -6 -6 -6 -6 -5 -5 -5
-3 -4 -4 -4 -4 -4 -5 -5 -6 -6 -7 -7 -8 -8 -8 -8 -8 -8 -8 -8 -8 -8 -8 -7 -7 -6 -7
-4 -5 -5 -5 -6 -7 -7 -8 -8 -9 -10 -9 -10 -10 -10 -10 -11 -10 -10 -10 -10 -10 -9 -9 -9 -8 -8
-6 -6 -7 -8 -9 -9 -10 -10 -11 -12 -12 -12 -13 -13 -13 -13 -13 -13 -13 -12 -12 -12 -12 -12 -11 -10 -10
-8 -9 -10 -11 -12 -13 -14 -13 -13 -14 -14 -13 -14 -14 -14 -14 -13 -14 -14 -13 -13 -14 -14 -14 -13 -12 -12
-11 -12 -13 -13 -14 -14 -14 -14 -15 -15 -15 -14 -15 -14 -14 -14 -14 -14 -14 -14 -14 -14 -14 -14 -14 -14 -13
-12 -12 -13 -13 -15 -15 -15 -15 -14 -15 -15 -15 -15 -14 -14 -14 -14 -14 -14 -14 -14 -14 -14 -14 -13 -13 -13
-12 -13 -14 -14 -15 -15 -15 -15 -14 -14 -15 -15 -14 -14 -13 -13 -14 -14 -14 -14 -14 -14 -14 -14 -14 -14 -13
-12 -13 -14 -14 -15 -16 -16 -15 -15 -14 -15 -15 -15 -15 -13 -13 -14 -15 -15 -16 -15 -15 -14 -14 -14 -14 -13
-12 -13 -14 -15 -15 -16 -17 -17 -16 -16 -16 -17 -16 -16 -16 -14 -14 -15 -15 -15 -15 -15 -15 -15 -14 -14 -14
-13 -14 -14 -15 -15 -16 -16 -17 -17 -17 -17 -18 -17 -17 -16 -15 -14 -15 -15 -15 -15 -15 -15 -15 -15 -14 -14
-14 -14 -15 -15 -15 -16 -16 -17 -17 -17 -18 -18 -17 -16 -16 -16 -15 -15 -15 -15 -15 -15 -15 -15 -15 -15 -14
-14 -14 -14 -15 -15 -16 -16 -16 -16 -16 -17 -17 -16 -16 -15 -16 -15 -15 -15 -15 -15 -15 -15 -15 -15 -15 -15
-14 -14 -15 -15 -15 -16 -16 -16 -15 -15 -16 -16 -16 -16 -15 -15 -15 -16 -15 -15 -15 -16 -15 -16 -16 -15 -15
-14 -15 -15 -15 -15 -15 -15 -15 -15 -15 -15 -15 -15 -15 -15 -16 -16 -15 -15 -15 -15 -15 -15 -16 -16 -16 -16
-15 -15 -15 -15 -15 -15 -15 -15 -15 -15 -15 -15 -15 -15 -15 -14 -15 -15 -15 -15 -15 -15 -15 -16 -16 -16 -16

GFSFLT2_700_temp_174.txt.gz
Temp
-2 -3 -3 -3 -3 -4 -4 -4 -4 -4 -4 -5 -5 -5 -5 -5 -5 -5 -5 -6 -6 -6 -5 -5 -5 -4 -4
-3 -4 -4 -4 -4 -5 -5 -5 -5 -5 -6 -6 -7 -7 -7 -8 -7 -7 -7 -7 -7 -7 -7 -7 -7 -6 -6
-4 -5 -5 -5 -5 -6 -6 -7 -8 -8 -8 -9 -9 -10 -11 -11 -11 -11 -10 -10 -10 -9 -8 -8 -8 -8 -7
-5 -5 -6 -6 -7 -8 -8 -10 -10 -10 -11 -12 -12 -13 -13 -13 -13 -13 -13 -13 -12 -12 -12 -12 -11 -10 -10
-6 -7 -8 -9 -10 -10 -11 -11 -11 -12 -12 -13 -14 -14 -14 -14 -14 -14 -14 -14 -14 -13 -13 -13 -13 -12 -12
-9 -10 -10 -11 -11 -12 -12 -12 -12 -13 -13 -13 -14 -14 -14 -14 -14 -14 -14 -14 -14 -14 -14 -14 -14 -14 -13
-10 -11 -11 -12 -12 -12 -12 -14 -14 -14 -14 -13 -14 -14 -14 -14 -14 -14 -14 -14 -14 -14 -14 -14 -14 -14 -14
-11 -11 -12 -12 -12 -13 -13 -14 -14 -15 -15 -14 -14 -14 -14 -13 -14 -14 -15 -14 -14 -14 -14 -14 -14 -14 -14
-11 -11 -12 -12 -13 -13 -14 -14 -14 -15 -16 -16 -15 -14 -14 -14 -14 -15 -15 -15 -15 -15 -14 -14 -14 -14 -13
-11 -12 -12 -13 -13 -14 -15 -15 -15 -15 -16 -16 -15 -15 -14 -15 -15 -15 -15 -15 -15 -15 -15 -15 -15 -14 -14
-12 -12 -12 -13 -14 -14 -15 -15 -16 -16 -17 -17 -16 -16 -16 -15 -15 -15 -15 -15 -15 -15 -15 -15 -15 -15 -14
-12 -13 -13 -13 -14 -14 -15 -15 -16 -16 -16 -17 -16 -16 -15 -14 -14 -15 -15 -15 -15 -15 -15 -15 -15 -15 -15
-13 -13 -13 -14 -14 -14 -15 -15 -15 -16 -16 -16 -16 -15 -15 -15 -14 -15 -15 -15 -15 -15 -15 -15 -15 -15 -15
-13 -14 -14 -14 -14 -15 -14 -14 -15 -15 -16 -15 -15 -15 -15 -15 -15 -15 -15 -15 -15 -15 -15 -15 -15 -15 -15
-14 -14 -14 -14 -15 -15 -15 -14 -14 -14 -14 -15 -15 -15 -15 -15 -15 -15 -15 -15 -15 -15 -15 -15 -15 -15 -16
-14 -14 -14 -14 -15 -15 -15 -14 -14 -14 -14 -14 -14 -14 -15 -15 -15 -15 -15 -15 -15 -15 -15 -15 -15 -15 -15
-14 -15 -15 -15 -15 -15 -15 -15 -15 -15 -15 -15 -15 -15 -14 -14 -15 -16 -15 -15 -15 -15 -15 -15 -15 -15 -15

GFSFLT2_700_temp_177.txt.gz
Temp
-2 -2 -2 -2 -2 -3 -4 -5 -5 -5 -6 -6 -7 -7 -7 -7 -7 -7 -7 -7 -7 -7 -7 -7 -7 -6 -5
-2 -3 -3 -4 -4 -5 -5 -6 -6 -7 -8 -9 -9 -9 -9 -9 -9 -9 -10 -11 -10 -10 -10 -10 -10 -9 -7
-3 -4 -5 -5 -5 -6 -6 -8 -9 -9 -10 -11 -11 -12 -12 -12 -12 -12 -13 -13 -13 -13 -13 -12 -12 -11 -11
-5 -5 -6 -6 -7 -8 -8 -10 -10 -10 -11 -12 -12 -13 -13 -13 -13 -13 -14 -14 -14 -14 -14 -13 -13 -13 -12
-6 -6 -7 -8 -9 -10 -11 -11 -11 -12 -12 -12 -13 -13 -13 -13 -14 -14 -14 -14 -14 -13 -13 -13 -13 -13 -13
-7 -8 -9 -10 -11 -11 -11 -11 -11 -12 -13 -13 -13 -14 -14 -14 -14 -14 -14 -14 -14 -13 -13 -13 -13 -13 -13
-9 -10 -11 -11 -11 -11 -11 -12 -12 -12 -13 -13 -14 -14 -14 -14 -14 -14 -15 -14 -14 -13 -13 -13 -13 -13 -13
-10 -11 -11 -11 -12 -12 -12 -12 -12 -13 -14 -14 -14 -14 -15 -15 -15 -15 -15 -15 -15 -14 -14 -14 -14 -14 -14
-11 -11 -11 -12 -12 -12 -12 -13 -13 -13 -14 -14 -14 -14 -15 -15 -15 -16 -15 -15 -15 -15 -15 -14 -14 -14 -14
-11 -11 -12 -12 -12 -13 -13 -13 -13 -13 -15 -14 -14 -15 -13 -14 -15 -15 -15 -15 -15 -15 -15 -15 -15 -15 -14
-11 -11 -12 -12 -13 -13 -14 -14 -14 -14 -15 -14 -14 -15 -15 -13 -14 -15 -15 -14 -15 -14 -15 -15 -15 -15 -15
-11 -12 -12 -13 -13 -14 -14 -14 -14 -15 -14 -14 -14 -14 -14 -14 -14 -14 -15 -15 -15 -14 -14 -14 -15 -15 -15
-12 -13 -13 -13 -13 -14 -14 -14 -14 -15 -15 -14 -14 -14 -14 -14 -14 -14 -14 -14 -14 -14 -14 -14 -14 -14 -15
-13 -13 -13 -14 -14 -14 -14 -14 -14 -14 -15 -14 -14 -14 -14 -14 -14 -14 -14 -14 -14 -14 -14 -14 -15 -15 -15
-13 -13 -13 -14 -14 -14 -14 -14 -14 -14 -14 -15 -15 -14 -14 -14 -14 -15 -14 -14 -14 -14 -14 -14 -15 -15 -15
-13 -13 -14 -14 -14 -15 -15 -15 -15 -15 -14 -14 -14 -14 -14 -14 -15 -15 -14 -14 -14 -14 -15 -14 -14 -15 -15
-13 -13 -14 -14 -15 -15 -15 -15 -15 -15 -15 -15 -15 -15 -14 -13 -14 -16 -15 -15 -15 -14 -15 -15 -15 -15 -15

GFSFLT2_700_temp_180.txt.gz
Temp
-1 -1 -1 -1 -2 -2 -2 -3 -4 -5 -5 -6 -7 -8 -9 -10 -10 -10 -10 -10 -10 -10 -10 -10 -10 -10 -10
-1 -2 -2 -3 -3 -3 -3 -4 -6 -7 -8 -9 -9 -10 -10 -11 -12 -12 -12 -12 -11 -11 -12 -12 -12 -13 -12
-2 -3 -3 -3 -4 -4 -5 -6 -8 -9 -10 -10 -11 -11 -12 -13 -13 -13 -13 -13 -13 -13 -13 -13 -13 -13 -13
-3 -3 -4 -5 -5 -6 -7 -8 -9 -10 -10 -11 -12 -12 -13 -13 -13 -14 -14 -14 -14 -13 -13 -13 -13 -13 -13
-4 -5 -5 -6 -7 -8 -9 -10 -10 -11 -11 -12 -12 -12 -13 -13 -13 -14 -14 -14 -14 -13 -13 -13 -13 -13 -13
-5 -6 -7 -8 -9 -10 -11 -11 -10 -12 -12 -12 -12 -13 -13 -13 -14 -14 -14 -14 -14 -14 -13 -13 -13 -13 -13
-7 -8 -9 -10 -11 -11 -11 -11 -12 -12 -12 -12 -12 -13 -13 -14 -15 -15 -15 -14 -14 -14 -14 -14 -14 -14 -14
-8 -10 -11 -11 -12 -12 -11 -11 -12 -13 -13 -12 -13 -13 -13 -14 -15 -15 -15 -14 -14 -14 -14 -14 -14 -14 -14
-10 -11 -12 -12 -12 -12 -12 -11 -12 -12 -14 -13 -13 -13 -13 -14 -14 -14 -14 -14 -14 -14 -14 -14 -14 -14 -14
-11 -11 -11 -12 -12 -12 -12 -12 -13 -13 -14 -13 -13 -13 -12 -13 -14 -14 -14 -14 -14 -14 -14 -14 -14 -14 -14
-11 -11 -11 -11 -12 -12 -13 -13 -13 -13 -14 -13 -13 -13 -13 -13 -13 -14 -14 -14 -14 -14 -14 -14 -14 -14 -14
-10 -11 -11 -12 -12 -13 -13 -13 -14 -14 -14 -14 -13 -13 -13 -13 -13 -13 -14 -14 -14 -14 -14 -14 -14 -14 -14
-10 -11 -11 -12 -12 -13 -13 -14 -14 -15 -15 -15 -14 -14 -14 -13 -13 -13 -13 -13 -14 -14 -14 -14 -14 -14 -13
-11 -11 -12 -12 -13 -13 -13 -14 -14 -14 -15 -15 -15 -14 -14 -14 -14 -14 -14 -14 -13 -14 -14 -14 -14 -14 -14
-12 -12 -12 -12 -12 -13 -14 -14 -14 -14 -14 -15 -15 -15 -15 -15 -14 -15 -14 -14 -14 -14 -14 -14 -14 -15 -15
-12 -12 -12 -12 -13 -13 -14 -14 -14 -14 -14 -15 -14 -14 -14 -15 -16 -15 -15 -15 -15 -15 -15 -14 -14 -15 -15
-13 -13 -13 -13 -13 -14 -14 -14 -14 -15 -15 -15 -15 -15 -14 -14 -14 -16 -15 -15 -14 -14 -15 -14 -14 -14 -14

GFSFLT2_700_temp_183.txt.gz
Temp
-1 -0 -0 0 -1 -1 -2 -3 -4 -4 -4 -5 -6 -7 -8 -8 -9 -9 -10 -10 -12 -12 -12 -12 -11 -12 -12
-1 -1 -1 -1 -2 -2 -3 -4 -5 -5 -6 -7 -8 -9 -9 -10 -10 -11 -12 -12 -13 -13 -13 -12 -12 -12 -12
-1 -2 -2 -2 -3 -3 -4 -5 -7 -7 -8 -9 -10 -10 -10 -11 -12 -12 -12 -13 -13 -14 -13 -13 -13 -12 -12
-2 -3 -3 -4 -4 -4 -5 -6 -8 -9 -10 -10 -10 -11 -11 -12 -12 -13 -13 -13 -13 -14 -14 -13 -13 -13 -12
-3 -3 -4 -4 -5 -5 -6 -8 -9 -10 -10 -10 -10 -12 -12 -12 -13 -13 -13 -13 -14 -14 -14 -13 -13 -13 -13
-3 -4 -5 -5 -6 -7 -8 -10 -9 -10 -10 -11 -12 -12 -12 -13 -13 -13 -13 -14 -14 -14 -14 -14 -14 -14 -14
-5 -6 -6 -7 -8 -9 -10 -10 -11 -11 -11 -11 -12 -12 -13 -13 -13 -13 -13 -13 -14 -14 -14 -14 -14 -14 -13
-6 -7 -8 -9 -10 -10 -10 -10 -11 -12 -12 -11 -12 -12 -13 -14 -14 -13 -13 -13 -14 -14 -14 -14 -14 -14 -13
-8 -8 -9 -10 -11 -11 -11 -11 -10 -11 -13 -12 -12 -12 -12 -14 -14 -14 -14 -13 -13 -13 -14 -14 -14 -13 -13
-9 -10 -10 -11 -11 -11 -11 -11 -11 -12 -13 -12 -13 -13 -12 -12 -14 -14 -14 -14 -14 -14 -13 -13 -14 -13 -13
-9 -10 -11 -11 -11 -11 -11 -11 -12 -13 -14 -13 -13 -13 -13 -12 -12 -14 -14 -14 -14 -14 -14 -14 -14 -14 -13
-10 -11 -11 -11 -11 -11 -11 -12 -13 -13 -14 -14 -14 -14 -13 -13 -13 -13 -13 -13 -14 -14 -13 -14 -14 -14 -14
-11 -11 -11 -11 -12 -12 -12 -12 -13 -14 -15 -15 -14 -14 -14 -14 -13 -13 -13 -13 -13 -14 -14 -14 -14 -14 -14
-11 -12 -12 -12 -12 -12 -12 -12 -13 -14 -15 -15 -15 -15 -14 -15 -14 -14 -14 -14 -14 -14 -14 -14 -14 -15 -14
-12 -12 -12 -12 -12 -13 -13 -13 -13 -13 -14 -14 -15 -15 -15 -15 -15 -15 -14 -14 -14 -14 -14 -13 -14 -15 -15
-12 -12 -12 -12 -13 -13 -14 -14 -14 -14 -14 -14 -14 -14 -14 -15 -16 -15 -15 -15 -14 -14 -14 -14 -14 -15 -15
-12 -12 -12 -13 -13 -14 -14 -15 -14 -14 -15 -15 -15 -14 -13 -14 -15 -17 -15 -15 -14 -14 -14 -14 -14 -14 -14

GFSFLT2_700_temp_186.txt.gz
Temp
-0 0 0 0 -0 -0 -1 -2 -2 -3 -3 -4 -5 -5 -6 -7 -8 -9 -9 -9 -10 -11 -11 -12 -12 -12 -12
-0 -0 -0 -0 -1 -1 -2 -3 -4 -4 -5 -6 -6 -7 -8 -9 -9 -9 -10 -10 -11 -12 -12 -12 -13 -13 -13
-1 -1 -1 -1 -2 -3 -4 -5 -5 -6 -7 -8 -8 -9 -9 -10 -10 -11 -11 -12 -12 -12 -12 -13 -13 -13 -13
-1 -2 -2 -2 -3 -3 -5 -6 -7 -7 -8 -9 -9 -10 -10 -11 -11 -11 -12 -12 -12 -12 -13 -13 -13 -13 -13
-2 -2 -3 -3 -4 -5 -5 -6 -7 -8 -9 -9 -10 -10 -11 -11 -11 -12 -12 -12 -13 -13 -13 -13 -14 -13 -13
-2 -3 -4 -4 -5 -6 -7 -7 -7 -9 -9 -10 -10 -11 -11 -11 -12 -12 -12 -12 -12 -13 -13 -13 -13 -13 -13
-3 -4 -5 -6 -6 -7 -8 -9 -9 -10 -10 -9 -10 -11 -12 -12 -12 -12 -12 -12 -13 -13 -13 -13 -13 -13 -13
-5 -6 -7 -7 -8 -8 -9 -10 -10 -11 -11 -10 -11 -11 -12 -13 -13 -13 -13 -13 -13 -13 -13 -13 -13 -13 -13
-7 -7 -8 -8 -9 -9 -10 -10 -10 -10 -11 -10 -11 -11 -12 -13 -14 -14 -13 -14 -13 -13 -13 -13 -13 -13 -13
-8 -9 -9 -10 -10 -11 -11 -11 -11 -10 -10 -10 -11 -12 -11 -12 -13 -14 -14 -14 -14 -14 -14 -13 -13 -13 -13
-9 -10 -10 -10 -11 -12 -12 -12 -11 -11 -11 -11 -11 -12 -13 -12 -12 -13 -14 -14 -14 -14 -14 -14 -14 -14 -13
-10 -10 -10 -11 -12 -12 -12 -12 -12 -12 -12 -12 -12 -13 -13 -13 -13 -13 -13 -13 -14 -14 -14 -14 -14 -14 -14
-10 -10 -11 -11 -11 -12 -12 -12 -13 -13 -13 -14 -14 -14 -14 -14 -13 -13 -13 -13 -14 -14 -14 -14 -14 -14 -14
-10 -11 -11 -11 -12 -12 -11 -12 -12 -14 -15 -15 -15 -14 -14 -15 -15 -14 -14 -14 -13 -14 -13 -13 -14 -14 -14
-11 -11 -11 -11 -11 -12 -12 -12 -13 -13 -15 -15 -15 -15 -15 -15 -15 -16 -15 -14 -14 -14 -13 -13 -14 -15 -14
-11 -11 -11 -11 -12 -12 -12 -13 -14 -15 -15 -15 -15 -14 -14 -15 -16 -16 -16 -15 -15 -15 -15 -14 -14 -15 -15
-12 -12 -12 -12 -12 -12 -13 -14 -15 -15 -16 -16 -16 -15 -14 -14 -14 -17 -16 -15 -15 -14 -15 -14 -14 -14 -14

GFSFLT2_700_temp_192.txt.gz
Temp
-1 -0 -0 -0 0 0 0 -0 -0 -0 -0 -1 -1 -2 -3 -3 -4 -5 -6 -7 -7 -8 -8 -9 -10 -10 -11
-1 -1 -1 -1 -0 -0 -1 -1 -1 -1 -1 -2 -2 -3 -4 -5 -6 -7 -7 -8 -8 -8 -9 -10 -10 -11 -12
-1 -1 -1 -1 -1 -1 -2 -2 -2 -1 -2 -3 -4 -5 -6 -7 -7 -8 -8 -9 -9 -9 -10 -10 -11 -12 -12
-1 -1 -1 -1 -1 -1 -2 -2 -3 -3 -4 -5 -6 -7 -7 -8 -8 -9 -9 -9 -9 -10 -11 -11 -11 -12 -12
-1 -2 -1 -1 -1 -2 -2 -2 -4 -4 -5 -7 -7 -8 -8 -9 -9 -9 -9 -10 -9 -10 -11 -11 -12 -12 -13
-2 -2 -2 -1 -2 -2 -3 -4 -4 -5 -4 -8 -8 -9 -9 -10 -10 -10 -10 -10 -10 -11 -11 -12 -12 -12 -12
-2 -2 -2 -2 -3 -3 -4 -5 -6 -7 -6 -7 -9 -9 -10 -10 -10 -10 -11 -11 -11 -11 -12 -12 -12 -13 -13
-3 -3 -3 -3 -4 -4 -4 -6 -7 -8 -8 -7 -8 -8 -9 -11 -11 -11 -11 -11 -11 -12 -12 -12 -13 -13 -13
-4 -4 -5 -5 -5 -5 -7 -7 -8 -8 -8 -8 -8 -8 -9 -10 -11 -12 -12 -12 -12 -12 -12 -12 -13 -13 -13
-5 -5 -6 -6 -7 -8 -8 -8 -9 -8 -9 -8 -8 -9 -8 -9 -10 -13 -13 -13 -13 -14 -13 -13 -13 -13 -13
-6 -6 -6 -8 -8 -9 -9 -9 -9 -9 -10 -9 -9 -10 -10 -10 -10 -13 -14 -14 -13 -14 -14 -14 -13 -14 -13
-6 -7 -8 -9 -9 -9 -10 -10 -10 -10 -10 -11 -11 -11 -11 -10 -11 -13 -14 -14 -14 -14 -13 -14 -14 -15 -14
-7 -8 -9 -9 -9 -10 -10 -10 -10 -12 -12 -12 -12 -12 -12 -12 -12 -14 -14 -14 -14 -14 -13 -13 -14 -15 -14
-8 -8 -9 -10 -10 -10 -10 -11 -11 -12 -14 -14 -13 -13 -13 -14 -14 -15 -16 -15 -15 -14 -14 -14 -14 -15 -15
-9 -10 -10 -11 -11 -11 -11 -12 -13 -13 -13 -14 -15 -15 -15 -15 -15 -16 -16 -16 -16 -15 -14 -14 -14 -15 -15
-10 -11 -11 -11 -11 -12 -13 -13 -14 -14 -14 -15 -15 -15 -16 -17 -17 -17 -17 -16 -16 -16 -15 -14 -14 -15 -15
-11 -11 -11 -12 -12 -13 -14 -14 -14 -14 -15 -16 -16 -16 -15 -15 -15 -17 -17 -16 -16 -16 -16 -16 -14 -14 -14

GFSFLT2_700_temp_195.txt.gz
Temp
-1 -2 -1 -1 -1 -0 0 0 0 1 1 0 -0 -0 -0 -1 -1 -3 -4 -5 -6 -6 -7 -7 -7 -8 -8
-2 -2 -2 -1 -1 -1 -0 -0 0 0 -0 -1 -1 -1 -1 -2 -3 -4 -5 -6 -7 -8 -8 -8 -8 -9 -9
-2 -2 -2 -1 -1 -1 -1 -0 -1 -1 -1 -2 -2 -2 -3 -4 -5 -6 -6 -7 -8 -9 -9 -9 -9 -9 -10
-2 -2 -2 -2 -1 -1 -1 -2 -2 -2 -2 -3 -3 -4 -5 -6 -6 -7 -7 -8 -9 -9 -9 -9 -9 -10 -11
-3 -2 -2 -2 -2 -1 -2 -2 -2 -2 -3 -5 -6 -6 -7 -7 -7 -7 -8 -8 -9 -9 -9 -9 -10 -10 -11
-3 -3 -2 -2 -2 -2 -2 -2 -3 -3 -4 -7 -6 -7 -7 -7 -7 -8 -8 -9 -9 -9 -9 -10 -10 -11 -11
-3 -3 -3 -3 -3 -3 -3 -3 -4 -5 -4 -6 -7 -8 -8 -8 -8 -9 -9 -9 -9 -9 -9 -10 -11 -11 -12
-4 -4 -3 -3 -3 -3 -4 -4 -6 -6 -6 -6 -7 -8 -8 -9 -9 -10 -10 -10 -10 -10 -10 -11 -12 -12 -12
-4 -4 -4 -4 -4 -4 -5 -5 -6 -7 -7 -7 -8 -7 -7 -8 -9 -10 -11 -11 -11 -11 -11 -12 -13 -12 -12
-5 -4 -4 -5 -5 -6 -6 -7 -8 -8 -8 -7 -8 -8 -8 -8 -10 -11 -12 -12 -12 -12 -13 -13 -14 -13 -12
-5 -5 -5 -6 -7 -7 -8 -9 -9 -9 -9 -9 -9 -10 -11 -10 -11 -12 -13 -13 -14 -14 -14 -14 -14 -14 -13
-6 -5 -6 -7 -8 -9 -9 -9 -10 -10 -10 -11 -10 -11 -12 -12 -12 -13 -14 -14 -14 -15 -14 -14 -14 -14 -14
-7 -7 -7 -8 -9 -9 -10 -10 -11 -12 -12 -12 -12 -13 -13 -13 -13 -14 -14 -14 -15 -15 -15 -14 -14 -14 -14
-7 -7 -8 -9 -9 -9 -10 -10 -11 -12 -13 -13 -13 -14 -14 -14 -14 -14 -15 -15 -16 -15 -15 -15 -15 -16 -15
-8 -8 -9 -9 -10 -10 -11 -11 -12 -12 -13 -14 -14 -15 -15 -15 -15 -15 -16 -16 -16 -16 -15 -15 -15 -16 -16
-9 -9 -10 -10 -10 -11 -12 -12 -13 -13 -13 -14 -15 -14 -14 -15 -16 -15 -16 -15 -16 -16 -16 -15 -14 -15 -15
-10 -10 -10 -11 -12 -12 -13 -13 -13 -14 -14 -15 -15 -15 -15 -14 -15 -16 -15 -15 -15 -15 -15 -15 -14 -14 -15

GFSFLT2_700_temp_201.txt.gz
Temp
-3 -3 -2 -2 -2 -2 -1 -1 -1 -0 0 0 -0 -0 0 -0 1 0 0 -0 -1 -0 -1 -2 -3 -3 -4
-3 -3 -3 -2 -3 -2 -2 -1 -1 -1 -0 -1 -0 0 -0 0 0 -0 -1 -1 -1 -2 -3 -3 -4 -5 -5
-3 -3 -3 -3 -3 -2 -2 -2 -2 -1 -1 -1 -0 -0 -0 -0 -1 -1 -2 -3 -3 -3 -4 -4 -5 -5 -6
-4 -4 -4 -4 -4 -3 -2 -2 -2 -1 -1 -1 -1 -1 -1 -2 -2 -2 -3 -4 -4 -5 -5 -5 -6 -7 -7
-4 -4 -4 -4 -4 -3 -3 -3 -2 -2 -2 -1 -1 -2 -3 -4 -4 -4 -5 -5 -5 -5 -6 -7 -7 -8 -8
-4 -4 -4 -4 -4 -3 -3 -3 -3 -3 -3 -3 -3 -4 -5 -5 -5 -5 -5 -6 -6 -7 -7 -7 -8 -9 -9
-5 -5 -5 -5 -5 -4 -4 -3 -3 -3 -3 -3 -4 -5 -6 -6 -6 -6 -6 -7 -7 -8 -8 -9 -10 -10 -11
-5 -5 -5 -4 -4 -4 -4 -4 -4 -4 -4 -4 -5 -6 -7 -7 -7 -7 -8 -8 -8 -9 -10 -11 -11 -11 -12
-6 -6 -6 -5 -5 -5 -4 -4 -5 -5 -5 -5 -6 -6 -7 -7 -8 -8 -9 -10 -11 -11 -12 -12 -12 -13 -13
-7 -7 -6 -6 -5 -5 -5 -5 -5 -6 -6 -6 -7 -7 -7 -8 -9 -9 -10 -11 -12 -12 -12 -13 -13 -13 -14
-7 -7 -6 -6 -6 -6 -6 -6 -6 -7 -7 -7 -8 -8 -9 -9 -10 -11 -12 -12 -12 -13 -13 -14 -14 -14 -14
-7 -6 -6 -6 -7 -6 -6 -7 -8 -8 -8 -9 -9 -10 -10 -10 -11 -12 -12 -13 -13 -12 -13 -14 -14 -14 -15
-7 -7 -7 -7 -7 -7 -8 -8 -9 -9 -10 -10 -10 -11 -12 -11 -12 -12 -13 -13 -13 -13 -13 -14 -14 -14 -14
-8 -8 -8 -8 -8 -8 -8 -9 -10 -10 -11 -12 -12 -12 -12 -12 -12 -13 -13 -13 -13 -13 -13 -14 -14 -14 -14
-8 -8 -8 -9 -9 -9 -10 -10 -10 -11 -11 -12 -12 -12 -12 -13 -13 -13 -14 -14 -14 -13 -14 -13 -14 -14 -14
-9 -9 -10 -10 -10 -10 -11 -11 -11 -12 -12 -12 -13 -13 -13 -13 -13 -13 -14 -14 -14 -13 -14 -13 -13 -14 -14
-11 -11 -11 -11 -11 -11 -12 -12 -12 -12 -13 -13 -13 -14 -13 -13 -13 -14 -15 -15 -14 -14 -14 -14 -14 -14 -14